Weather Roundup
Issued by NWS

Home | Current Version | Previous Version | Graphics & Text | Print | Product List | Glossary Off
Versions: 1 2 3 4 5 6 7 8 9 10 11 12 13 14 15 16 17 18 19 20 21 22 23 24 25 26 27 28 29 30 31 32 33 34 35 36 37 38 39 40 41 42 43 44 45 46 47 48 49 50

659
NZUS93 KARX 060359
HRRWXR

CURRENT HOURLY OBSERVATIONS ACROSS
MUCH OF THE UPPER MISSISSIPPI VALLEY
NATIONAL WEATHER SERVICE LA CROSSE WI
1000 PM CST MON DEC 05 2016


...SOUTHEAST MINNESOTA...


CITY           SKY/WX    TMP DP  RH WIND       PRES   REMARKS
ROCHESTER      FRZ RAIN  33  31  92 S18       29.72F WCI  22
ROCHESTER/MAYO CLOUDY    33  32  95 SE14G24   29.72F WCI  24
WINONA         CLOUDY    36  30  80 S6        29.78S WCI  31
AUSTIN         LGT RAIN  34  30  86 S15G21    29.72S WCI  24
ALBERT LEA     CLOUDY    39  37  93 S13G22    29.70R WCI  32
DODGE CENTER   MIX PCPN  34  32  93 S22       29.69S WCI  22
PRESTON        MOCLDY    32  29  89 S13       29.76S WCI  22
OWATONNA       CLOUDY    36  32  87 S18       29.68R WCI  25
FARIBAULT      CLOUDY    37  34  87 S14G22    29.68R WCI  29
$$

...ELSEWHERE IN MINNESOTA...


CITY           SKY/WX    TMP DP  RH WIND       PRES   REMARKS
MINNEAPOLIS    CLOUDY    40  33  76 S14       29.66S WCI  32
INTNL FALLS    LGT SNOW  30  28  92 E10G23    29.60F VSB 3/4 WCI  21
DULUTH         LGT SNOW  34  33  96 SE15      29.64S FOG     WCI  24
RED WING       LGT RAIN  37  32  81 S14       29.70S WCI  29
REDWOOD FALLS  CLOUDY    34  26  72 W17G25    29.66R WCI  23
MANKATO        CLOUDY    39  34  81 W17       29.68R WCI  30
WORTHINGTON    CLOUDY    31  26  82 W25G37    29.70R WCI  17
FAIRMONT       CLOUDY    37  31  78 W18       29.71R WCI  27
$$

...SOUTHWEST WISCONSIN...


CITY           SKY/WX    TMP DP  RH WIND       PRES   REMARKS
LA CROSSE      MOCLDY    36  30  79 S13       29.80S WCI  27
PRAIRIE DU CHI CLOUDY    34  31  88 SE7       29.84S WCI  28
BOSCOBEL       CLOUDY    35  31  85 MISG      29.86S
LONE ROCK      NOT AVBL
PLATTEVILLE    CLOUDY    32  32 100 SE8       29.86R WCI  25
FORT MC COY    PTCLDY    34  31  88 SE6       29.81F WCI  29
CAMP DOUGLAS   MOCLDY    32  32 100 SE12      29.83F WCI  23
MAUSTON-NEW LI CLOUDY    33  31  95 SE7       29.85R FOG     WCI  26
VIROQUA        CLOUDY    32  32 100 S9        29.80R WCI  24
WIS DELLS      CLOUDY    32  31  96 SE12      29.86S FOG     WCI  23
$$

...ELSEWHERE IN WISCONSIN...


CITY           SKY/WX    TMP DP  RH WIND       PRES   REMARKS
MILWAUKEE      CLOUDY    36  33  89 S9        29.93F FOG     WCI  29
MADISON        CLOUDY    31  30  96 S9        29.89S WCI  23
GREEN BAY      CLOUDY    35  33  92 SE8       29.92F WCI  29
EAU CLAIRE     NOT AVBL
BLACK RVR FLS  FAIR      33  32  95 CALM      29.80F
MEDFORD        MOCLDY    32  29  88 SE12G20   29.75F WCI  23
WAUSAU         CLOUDY    32  30  92 SE8       29.81F WCI  25
WIS RAPIDS     CLOUDY    32  31  96 SE8       29.85F FOG     WCI  25
MARSHFIELD     CLOUDY    32  29  88 SE12      29.79F WCI  23
RICE LAKE      CLOUDY    35  31  86 SE12      29.72S WCI  26
$$

...NORTHEAST IOWA...


CITY           SKY/WX    TMP DP  RH WIND       PRES   REMARKS
WATERLOO       CLOUDY    33  31  92 S10       29.80R FOG     WCI  25
DUBUQUE        LGT SNOW  30  30 100 SE17G23   29.86R FOG     WCI  18
DECORAH        CLOUDY    32  32 100 S13G20    29.77S FOG     WCI  22
MASON CITY     MIX PCPN  34  33  96 S16       29.74S FOG     WCI  24
CHARLES CITY   CLOUDY    34  34 100 S17       29.77S FOG     WCI  23
OELWEIN        CLOUDY    32  32 100 SE22      29.80S FOG     WCI  19
$$

...ELSEWHERE IN IOWA...


CITY           SKY/WX    TMP DP  RH WIND       PRES   REMARKS
DES MOINES     CLOUDY    39  36  89 SE13      29.78R WCI  31
IOWA CITY      CLOUDY    35  32  88 SE13      29.86S WCI  26
FORT DODGE     CLOUDY    41  34  75 S12       29.74R
MARSHALLTOWN   CLOUDY    34  34 100 SE15      29.78S FOG     WCI  24
CEDAR RAPIDS   CLOUDY    33  33 100 SE15      29.81F WCI  23
$$

...NORTHERN ILLINOIS...


CITY           SKY/WX    TMP DP  RH WIND       PRES   REMARKS
CHICAGO-OHARE  CLOUDY    32  30  92 SE8       29.95F FOG     WCI  25
CHICAGO-MIDWAY CLOUDY    34  30  85 E8        29.96F FOG     WCI  27
MOLINE         CLOUDY    34  30  85 SE13      29.87F WCI  25
ROCKFORD       CLOUDY    31  29  92 SE13      29.93F FOG     WCI  21
PEORIA         PTCLDY    34  34 100 E7        29.89F WCI  28
$$

NOTE: "FAIR" INDICATES FEW OR NO CLOUDS BELOW 12,000 FEET WITH NO
SIGNIFICANT WEATHER AND/OR OBSTRUCTIONS TO VISIBILITY. WIND
SPEEDS ARE IN MILES-PER-HOUR.




USA.gov is the U.S. government's official web portal to all federal, state and local government web resources and services.